Showing default

BRO-22, 69504

Orbit data source: Space-Track

BRO-22, 69504 is a payload satellite owned by Unseen Labs (FR) in SSO that was launched on Fri, 12 Jun 2026 UTC via a H3-30S launch vehicle from the Tanegashima Space Center (TNSTA). Payload-class satellites include a variety of spacecraft equipped with specific instruments for various scientific and technological missions. These include communications satellites like Starlink; space stations such as the ISS; scientific satellites like the Hubble; Earth observation satellites from companies like Planet Labs, Umbra, and HawkEye 360; GPS; miniature CubeSats for education and research; and military/defense satellites.

Loading next visibility...
Identifier
69504, 2026-132C
Orbit
SSO
Country
Flag of FRFR
Related business
Manufacturer
GOMSpace
Mission
Operational spacecraft
Bus & Motor
CUBESAT 8U, Unknown motor
Mass
10 kg wet, 10 kg dry
Launch date (UTC)
2026-06-12 (1 month ago)
Launch vehicle
H3-30S
Launch site
Tanegashima Space Center (TNSTA)
Object type
Payload
Rocket body
Debris
Shape & HBR
Unknown shape, 14.5 m
Radar Cross Section
Medium (>0.1 m² and <1 m²)

Expand to show TLE details & history
Last TLE update: 10 hours ago

TLE from 10 hours ago
0 BRO-22
1 69504U 26132C   26192.97189104  .00000633  00000-0  55871-4 0  9999
2 69504  97.6832 256.3344 0016210 192.4467 167.6358 14.99799758  4492
Epoch: 2026-07-11T23:19Z
TLE epoch observation values (Epoch: 2026-07-11T23:19:31.385Z)
Latitude
-0.00007°
Longitude
-23.42381°
Altitude
581.57 km
Speed
7.564 km/s
True Right ascension
17h 05m 20s
True Declination
0° 00' 00"
Sunlit
Object was in full shadow at epoch
Visualization orbit readout
Latitude
Unknown
Longitude
Unknown
Altitude
Unknown
Speed
Unknown
Apparent Right ascension
Unknown
Apparent Declination
Unknown
Sunlit
N/A
Visualization observer readout
Local Sidereal Time
21:25:50
Azimuth
Unknown
Elevation
Unknown
Doppler factor
Unknown
Orbital elements
Apogee altitude
575.773 km
Perigee altitude
553.265 km
Semi-major axis
6,942.656 km
Eccentricity
0.00162
Inclination
97.6832°
RAAN
256.3344°
Arg. of periapsis
192.4467°
True anomaly
167.6755°
Mean anomaly
167.6358°
Eccentric anomaly
167.65566°
Mean motion
3.75193 °/min
Orbital period
95.95 mins
BSTAR
0.000055871
Loading maneuver chart data...
Computing Atmospheric mass density...
Loading historical data...
Loading historical data...
Loading historical data...
Loading historical data...
Loading historical data...
Loading historical data...
Loading historical data...
Other satellites on launch #132 in the year 2026 (2026-06-12 UTC)

Documentation

Showing up to 5 results
|